Flag for Germany Weather past 2 weeks in Singen (Hohentwiel), Baden-Württemberg, Germany

Now
60 °F

Overcast.


Feels Like: 60 °F
Forecast: 40 / 66 °F
Wind: 1 mph from Southeast

Location: Konstanz

Current Time: Sep 1, 2014 at 8:32:38 PM

Latest Report: Sep 1, 2014 at 8:00 PM


Visibility: 38 mi

Pressure: 30.14 "Hg

Humidity: 70%

Dew point: 50 °F

Location of Singen (Hohentwiel)Location

Historic Weather in Singen (Hohentwiel) — Graph

°F

Singen (Hohentwiel) temperature yesterday

Maximum temperature yesterday: 65 °F (at 12:00 PM)
Minimum temperature yesterday: 54 °F (at 10:00 PM)
Average temperature yesterday: 58 °F

Past Weeks' High & Low Weather Summary

 TemperatureHumidityPressure
High75 °F (Aug 30, 5:00 PM)99% (Aug 28, 1:00 AM)30.19 "Hg (Aug 28, 1:00 AM)
Low49 °F (Aug 25, 3:00 AM)38% (Aug 21, 5:00 PM)29.75 "Hg (Aug 26, 7:00 PM)
Average61 °F75%30.00 "Hg
* Reported Aug 17 7:00 PM — Sep 1 7:00 PM, Singen (Hohentwiel), Weather by CustomWeather, © 2014

Note: Actual official high and low records may vary slightly from our data, if they occured in-between our weather recording intervals... More about our weather records

Advertising

Singen (Hohentwiel) weather history for previous 24 hours

 ConditionsComfort  
Time TempWeatherWind HumidityBarometerVisibility
7:00 PM
Sep 1
61 °FOvercast.1 mph66%30.14 "Hg37 mi
6:00 PM63 °FOvercast.2 mph63%30.13 "Hg40 mi
5:00 PM63 °FOvercast.1 mph58%30.13 "Hg28 mi
4:00 PM62 °FOvercast.2 mph61%30.13 "Hg28 mi
3:00 PM62 °FOvercast.3 mph58%30.13 "Hg28 mi
2:00 PM61 °FPartly sunny.2 mph58%30.12 "Hg28 mi
1:00 PM61 °FPartly sunny.3 mph61%30.12 "Hg28 mi
12:00 PM59 °FPartly sunny.2 mph67%30.12 "Hg28 mi
11:00 AM58 °FPartly sunny.2 mph72%30.12 "Hg28 mi
10:00 AM55 °FPartly sunny.2 mph83%30.13 "Hg22 mi
9:00 AM54 °FOvercast.2 mph89%30.11 "Hg22 mi
8:00 AM53 °FOvercast.2 mph92%30.11 "Hg22 mi
7:00 AM53 °FOvercast.2 mph94%30.09 "Hg22 mi
6:00 AM53 °FPassing clouds.3 mph93%30.07 "Hg19 mi
5:00 AM53 °FOvercast.2 mph93%30.06 "Hg22 mi
4:00 AM54 °FOvercast.2 mph95%30.06 "Hg14 mi
3:00 AM53 °FOvercast.2 mph96%30.05 "Hg12 mi
2:00 AM54 °FLow clouds.2 mph95%30.05 "Hg12 mi
1:00 AM54 °FDrizzle. Low clouds.2 mph96%30.04 "Hg11 mi
12:00 AM54 °FLight rain. Overcast.3 mph94%30.05 "Hg6 mi
11:00 PM
Aug 31
54 °FOvercast.3 mph93%30.05 "Hg22 mi
10:00 PM54 °FPassing clouds.2 mph94%30.06 "Hg19 mi
9:00 PM55 °FOvercast.2 mph92%30.06 "Hg31 mi
8:00 PM55 °FLight rain. Overcast.3 mph94%30.04 "Hg12 mi
Weather by CustomWeather, © 2014

See weather overviewHow to use our weather pages